Погода в Красноуфимске

Погода в Красноуфимске : погода сейчас, прогноз погоды и архив. Всё, что Вы хотите узнать о погоде в Красноуфимске!

Хотите узнать прогноз погоды в Красноуфимске? Тогда Вам сюда: Погода в Красноуфимске

Поиск расширенной информации на нашем сайте:

Другие новости

Новости СМИ2

Главная страница сайта

Новости сайта

03.07.2017

Напоминаем, что на нашем специализированном сайте Метеоцентр.Азия вы можете получить высокодетализированные автоматические прогнозы погоды по пунктам России, СНГ и мира в авиационном формате (включающие направление и скорость ветра, видимость, явления погоды, количество и форму облачности, нижнюю и верхнюю границу облачности).

Рекомендуем: Работы по хозяйству; гарантия качества.

Погода в Красноуфимске - сегодня

Время (UTC), дата Ветер
(°,м/с) 
Видим.   Явления Облачность Т
(°С)
Тd
(°С)
f(%) Тe
(°С)
Pmin
(гПа)
dP
(гПа)
Po
(мм)
O2
(г/м3)
Тmin Tmax R s Состояние
почвы
18 14.02.18 300 (СЗ) 20000 м    ясно 
-11.1 -15.5 70 -11  1032.6  0.7  754  318           
21 14.02.18 030 (СВ) 20000 м    10/5 600 м верхняя 
[Sc diur, vesp|Cs]
-7.4 -10.9 76 -10  1032.4  0.2  754  313           
00 15.02.18 030 (СВ) 20000 м    10/10 600 м 
[Sc]
-7.4 -10.9 76 -7  1032.6  0.2  754  313           
03 15.02.18 310 (СЗ) 20000 м    9/9 600 м кучево-дожд. 
[Cb cap]
-6.8 -10.1 77 -6  1033.2  0.6  755  313  -11.1      17  равномерный
сухой снег
100% 
06 15.02.18 290 (З) 20000 м    ясно 
-7.2 -10.6 77 -9  1034.5  1.3  756  314           
09 15.02.18 320 (СЗ) 20000 м    9/9 600 м кучево-дожд. 
[Cb cap]
-4.6 -9.8 67 -6  1035  0.8  756  311           
12 15.02.18 300 (СЗ) 20000 м    9/0 средняя 
[Ac trans]
-4.6 -10.7 62 -4  1035.5  0.5  757  311           
18 15.02.18 290 (З) 20000 м    10/10 600 м кучево-дожд. 
[Cb cap]
-21.8 -52.8 4 -26               
21 15.02.18 280 (З) 20000 м    10/10 600 м кучево-дожд. 
[Cb cap]
-7.8 -10 84 -9  1037.8  0.5  758  315           
00 16.02.18 290 (З) 20000 м    8/8 600 м кучево-дожд. 
[Cb cap]
-10.2 -11.5 90 -12  1038.6  0.8  758  319           
03 16.02.18 270 (З) 20000 м    9/0 верхняя 
[Ci fib]
-11.4 -13.4 85 -11  1039.4  0.7  759  320  -12.3      17  равномерный
сухой снег
100% 
06 16.02.18 300 (СЗ) 20000 м    9/0 верхняя 
[Ci fib]
-8.3 -11.5 78 -8  1040.4  1.3  760  317           
09 16.02.18 360 (С) 20000 м    9/0 верхняя 
[Ci fib]
-4.6 -11.2 60 -4  1040  0.1  760  313           
12 16.02.18 300 (СЗ) 20000 м    9/0 верхняя 
[Ci fib]
-2.9 -12.5 48 -4  1039.9  760  311           
18 16.02.18 тихо ()   20000 м    ясно 
-18.2 -20.1 85 -18  1042.4  0.3  761  330           
21 16.02.18 тихо ()   20000 м    ясно 
-19.8 -21.7 85 -20  1042.7  761  332           
00 17.02.18 тихо ()   20000 м    ясно 
-21.7 -23.5 85 -22  1042.9  761  335           
03 17.02.18 тихо ()   20000 м    10/10 600 м кучево-дожд. 
[Cb cap]
-16.7 -18.6 85 -17  1042.3  761  328  -22      17  равномерный
сухой снег
100% 
06 17.02.18 240 (ЮЗ) 20000 м    10/10 600 м кучево-дожд. 
[Cb cap]
-12.8 -14.8 85 -13  1041.4  -0.5  760  323           
09 17.02.18 270 (З) 20000 м    10/10 600 м кучево-дожд. 
[Cb cap]
-5 -8.6 76 -6  1040.3  -0.2  760  313           
12 17.02.18 230 (ЮЗ) 20000 м    9/6 600 м кучево-дожд., средняя, верхняя 
[Cb cap|Ac trans|Ci fib]
-4 -9.4 66 -6  1039.3  -0.9  759  312           
18 17.02.18 200 (Ю) 20000 м    9/0 верхняя 
[Ci fib]
-15.6 -16.9 90 -16  1039.4  -0.7  759  326           
21 17.02.18 тихо ()   20000 м    9/0 верхняя 
[Ci fib]
-17.6 -19.5 85 -18  1039.3  -0.4  758  328           
00 18.02.18 010 (С) н/о    н/о 
-21.8 -52.8 4 -22               
06 18.02.18 340 (С) 20000 м    5/0 средняя, верхняя 
[Ac trans|Ci fib]
-14.4 -16.4 85 -14  1038.3  758  324  -19.4         
Время (UTC), дата Ветер
(°,м/с) 
Видим.   Явления Облачность Т
(°С)
Тd
(°С)
f(%) Тe
(°С)
Pmin
(гПа)
dP
(гПа)
Po
(мм)
O2
(г/м3)
Тmin Tmax R s Состояние
почвы

Для получения пояснительной информации подведите курсор к названию столбца.

ПОГОДА в Красноуфимске - архив

Всё, что Вы хотите узнать о погоде в Красноуфимске - удобно и подробно!

Выберите нужную дату (начиная с 1 января 2015* года) и нажмите кнопку "Найти".
Будут отображены архивные сводки погоды по пункту Красноуфимск, начиная с указанной даты.


Отображать данные в формате CSV (для использования в таблицах Excel)


Внимание! Наш архив погоды предназначен исключительно для личного некоммерческого использования в познавательных целях. Если Вам необходимы официальные справки о состоянии погоды (для производственных, юридических, коммерческих и т.п. целей), обращайтесь в органы Росгидромета.

*Примечание: данная дата относится к архиву по метеостанциям СССР (Россия, СНГ, Балтия).
Архив по метеостанциям Зарубежной Европы и Азии (кроме Китая) хранится 10 дней, по другим регионам земного шара (Китай, Африка, Америка, Австралия, Океания) - 1 день.

Красноуфимск - район местоположения метеостанции


Название, широта, долгота, высота метеостанции:
Красноуфимск 56.6°ш. 57.8°д. 206 м над ур. моря [Российская Федерация]

Дополнительная информация

В oтличие oт бoльшинства пoгoдных сайтoв мы публикуем пoдрoбную метеoинфoрмацию в детальнoм прoфессиoнальнoм фoрмате.

Характеристики температуры и влажнoсти вoздуха измеряются на высoте 2 м в тени вдали oт зданий и деревьев.
Скoрoсть ветра измеряется на высoте 10 м (на урoвне рoста челoвека скoрoсть ветра ниже в 1.5-2 раза). Если метеoстанция нахoдится в гoрoде или в лесу, тo скoрoсть ветра занижена на 2-4 м/с пo сравнению с oткрытым местoм. Скoрoсть ветра над акватoриями крупных рек и oзёр, а также на вершинах хoлмoв на 2-5 м/с выше, чем в oбычных услoвиях.
Атмoсфернoе давление в разных тoчках местнoсти мoжет значительнo oтличаться oт давления на метеoстанции, в зависимoсти oт услoвий рельефа (при пoдъёме на 10 м давление пoнижается примернo на 1 мм рт.ст.).